Miscellaneous Local Product
Issued by NWS Hastings, NE

Home | Current Version | Previous Version | Text Only | Print | Product List | Glossary Off
Versions: 1 2 3 4 5 6 7 8 9 10 11 12 13 14 15 16 17 18 19 20 21 22 23 24 25 26 27 28 29 30 31 32 33 34 35 36 37 38 39 40 41 42 43 44 45 46 47 48 49 50

000
AXUS43 KGID 241302
MISGRI

GID CWA HOURLY WEATHER ROUNDUP
NATIONAL WEATHER SERVICE HASTINGS NE
700 AM CST WED DEC 24 2014

NOTE: "FAIR" INDICATES FEW OR NO CLOUDS BELOW 12,000 FEET WITH NO
SIGNIFICANT WEATHER AND/OR OBSTRUCTIONS TO VISIBILITY.

...SOUTH CENTRAL NEBRASKA...

CITY           SKY/WX    TMP DP  RH WIND       PRES   REMARKS
GRAND ISLAND   CLOUDY    27  23  85 NW13      29.94S WCI  16
HASTINGS       CLOUDY    27  23  85 N14       29.93S WCI  16
KEARNEY        CLEAR     23  19  86 W9        29.95R WCI  13
ORD            CLOUDY    26  22  84 NW13      29.92S WCI  15
YORK           CLOUDY    28  27  93 N10G18    29.93R WCI  19
AURORA         CLOUDY    27  25  92 N14       29.93S WCI  16
LEXINGTON      CLEAR     22  19  86 NW16      29.95F WCI   8
HOLDREGE       CLEAR     22  18  87 NW10      29.93F WCI  11
HEBRON         CLOUDY    31  26  84 NW12      29.93F WCI  21

...NEBRASKA PANHANDLE...

CITY           SKY/WX    TMP DP  RH WIND       PRES   REMARKS
CHADRON        PTCLDY     9   4  80 SW13      29.89F WCI  -7
ALLIANCE       PTCLDY     6   2  83 W8        29.87F WCI  -7
SCOTTSBLUFF    PTCLDY    10   5  80 CALM      29.90F
SIDNEY         PTCLDY    13   7  77 W8        29.90F WCI   2

...WESTERN AND NORTH CENTRAL NEBRASKA...

CITY           SKY/WX    TMP DP  RH WIND       PRES   REMARKS
VALENTINE      CLEAR      9   6  88 SW5       29.89F WCI   1
AINSWORTH      PTCLDY    16  13  87 W6        29.90S WCI   7
ONEILL         CLOUDY    26  26  99 NW16      29.91F WCI  13
BROKEN BOW     CLEAR     20  15  81 NW7       29.92F WCI  11
IMPERIAL       PTCLDY    16   9  74 W9        29.94F WCI   4
NORTH PLATTE   CLEAR     14  11  87 NW8       29.95F WCI   3
MCCOOK         CLEAR     18  13  80 W12       29.97F WCI   5

...EASTERN NEBRASKA...

CITY           SKY/WX    TMP DP  RH WIND       PRES   REMARKS
NORFOLK        CLOUDY    28  25  88 NW12      29.91S WCI  18
SO SIOUX CITY  CLOUDY    32  29  88 NW14      29.89F WCI  22
TEKAMAH        CLOUDY    33  30  88 NW16      29.89S WCI  23
COLUMBUS       CLOUDY    28  21  74 NW14      29.94S WCI  17
ALBION         CLOUDY    26  23  89 NW14      29.92S WCI  14
OMAHA EPPLEY   CLOUDY    33  30  88 NW17      29.89S WCI  22
MILLARD        CLOUDY    33  30  89 NW9       29.89R WCI  26
LINCOLN        CLOUDY    32  27  81 NW13      29.93R WCI  22
NEBRASKA CITY  CLOUDY    33  32  98 N14       29.87S WCI  23
BEATRICE       CLOUDY    32  29  90 NW10      29.90F WCI  23
FALLS CITY     CLOUDY    34  32  92 NW16      29.85F WCI  24

...NORTHERN KANSAS...

CITY           SKY/WX    TMP DP  RH WIND       PRES   REMARKS
GOODLAND       PTCLDY    16  10  77 W10       29.97F WCI   4
HILL CITY      CLEAR     24  17  74 NW15      29.98S WCI  11
NORTON         SUNNY     21  16  79 W14       29.96S WCI   8
PHILLIPSBURG   CLEAR     27  21  80 W8        29.98S WCI  18
SMITH CENTER   PTCLDY    25  21  86 W8        29.96S WCI  16
BELOIT         CLOUDY    32  27  80 NW9       29.96S WCI  24
HAYS           CLEAR     27  14  59 NW13G20   29.96F WCI  16
RUSSELL        CLEAR     26  22  84 NW17      29.95S WCI  13
CONCORDIA      CLOUDY    31  27  85 NW14      29.95R WCI  21
SALINA         CLOUDY    33  28  81 NW14      29.94F WCI  23
TOPEKA         CLOUDY    36  32  85 NW13      29.87S WCI  27



USA.gov is the U.S. government's official web portal to all federal, state and local government web resources and services.